Regional Weather Roundup
Issued by NWS

Home | Current Version | Previous Version | Text Only | Print | Product List | Glossary On
Versions: 1 2 3 4 5 6 7 8 9 10 11 12 13 14 15 16 17 18 19 20 21 22 23 24 25 26 27 28 29 30 31 32 33 34 35 36 37 38 39 40 41 42 43 44 45 46 47 48 49 50
000
ASUS44 KLUB 250210
RWRTX
WEST TEXAS WEATHER ROUNDUP
NATIONAL WEATHER SERVICE LUBBOCK TX
900 PM CDT THU JUL 24 2014

NOTE: "FAIR" INDICATES FEW OR NO CLOUDS BELOW 12,000 FEET WITH NO
SIGNIFICANT WEATHER AND/OR OBSTRUCTIONS TO VISIBILITY.

TXZ004-006>008-010-012-014-016-OKZ002-250300-
TEXAS PANHANDLE/OKLAHOMA PANHANDLE

CITY           SKY/WX    TMP DP  RH WIND       PRES   REMARKS
AMARILLO       CLEAR     85  58  39 S12       30.07R
BORGER         CLEAR     92  56  29 S16       30.01R
CANADIAN       CLEAR     91  64  40 S12G20    29.97R
DALHART        CLEAR     88  51  28 S21       30.05R
DUMAS          CLEAR     86  49  28 S10       30.05R
GUYMON         CLEAR     90  53  28 S13       29.96R
HEREFORD       CLEAR     83  62  47 SE9       30.09S
PAMPA          CLEAR     86  57  37 S12       30.05R
PERRYTON       CLEAR     90  59  34 S17G25    29.98S
$$

TXZ026-029-035-045-048-250300-
SOUTHERN PANHANDLE/SOUTH PLAINS/ROLLING PLAINS

CITY           SKY/WX    TMP DP  RH WIND       PRES   REMARKS
CHILDRESS      CLEAR     89  65  44 SE10      29.99S
SEMINOLE       CLEAR     90  49  24 E6        30.07R
LUBBOCK        PTCLDY    88  58  36 E12       30.06S
PLAINVIEW      CLEAR     82  61  49 SE7       30.06S
SNYDER         CLEAR     91  60  34 E12       30.03R
$$

TXZ052-054-060>062-072-078-127-140-154-169-250300-
PERMIAN BASIN/CONCHO VALLEY/BIG COUNTRY/EDWARDS PLATEAU

CITY           SKY/WX    TMP DP  RH WIND       PRES   REMARKS
ABILENE        CLEAR     90  64  42 SE9       30.00R
BIG SPRING     CLEAR     93  60  33 SE13      30.05R
BRADY          CLEAR     84  64  51 E6        30.02R
BROWNWOOD      CLEAR     84  66  54 E6        30.00R
JUNCTION       PTCLDY    85  65  51 S6        30.02R
MIDLAND        PTCLDY    93  58  30 SE18      30.03R
ODESSA         PTCLDY    86  60  41 MISG      30.05F
SAN ANGELO     CLEAR     89  61  38 E9        30.01R
SONORA         PTCLDY    84  64  51 SE13G18   30.07R
SWEETWATER     CLEAR     90  61  38 SE9       30.06R
WINK           CLEAR     96  49  20 SE10      29.99R
$$

TXZ055-058-074-075-080-082-250300-
FAR WEST/SOUTHWEST MOUNTAINS/TRANS PECOS

CITY           SKY/WX    TMP DP  RH WIND       PRES   REMARKS
ALPINE         CLEAR     85  49  29 SE10      30.20R
DRYDEN           N/A     92  57  30 SE8       29.99R
EL PASO        PTCLDY    93  46  19 SE6       30.03S
FORT STOCKTON  CLEAR     91  53  27 E10       30.04R
GUADALUPE PASS CLEAR     82  42  24 E17         N/A
MARFA          CLEAR     81  50  34 E9        30.19R
PECOS          PTCLDY    90  51  25 SE8       29.99R
PRESIDIO       FAIR      91  53  26 SE5       29.99R
$$

TXZ014-016-019-021>030-083-250300
TEXAS TECH WEST TEXAS MESONET/TEXAS PANHANDLE/NORTHERN SOUTH PLAINS

CITY           SKY/WX    TMP DP  RH WIND       PRES   REMARKS
ABERNATHY 5ENE   N/A     84  59  42 E8        30.08S
AMARILLO 9NNE    N/A     85  60  42 S13       30.04R
AMARILLO 7SSE    N/A     85  59  41 S12       30.08S
AMHERST 1NE      N/A     84  55  36 SE8       30.08S
BOOTLEG 11WNW    N/A     80  52  38 S9        30.14R
CANADIAN 6E      N/A     88  64  45 S10       29.97R
CAPROCK CYN SP   N/A     84  64  50 S7        30.03S
CHILDRESS 2NNE   N/A     89  64  44 SE12      29.98S
CLARENDON 2WSW   N/A     83  62  48 SE9       30.03R
CLAUDE 12SW      N/A     87  59  39 S7        30.07S
DIMMITT 2NE      N/A     82  61  48 SE9       30.10R
FLOYDADA 2NNE    N/A     80  63  56 SE7       30.07S
FRIONA 2NE       N/A     83  57  40 SE10      30.11R
GOODLETT 3W      N/A     89  64  43 SE9       29.96S
HART 3N          N/A     80  60  50 SE7       30.09S
HEREFORD 2NW     N/A     83  57  41 SE8       30.09R
MCLEAN 1E        N/A     83  65  53 SE9       30.02S
MEMPHIS 1NE      N/A     89  65  43 SE7       29.98S
MULESHOE 2SSW    N/A     84  52  32 SE8       30.08S
OLTON 6S         N/A     78  62  56 E8        30.08R
PALO DURO SP     N/A     87  58  37 S9        30.08R
PAMPA 2E         N/A     85  60  42 SE13      30.04S
PLAINVIEW 1S     N/A     84  61  45 SE7       30.07S
SILVERTON 7ESE   N/A     82  63  52 SE8       30.06S
TULIA 2ENE       N/A     80  61  52 SE9       30.08S
TURKEY 2WSW      N/A     87  64  45 SE8       30.01R
UMBARGER 3NNE    N/A     80  59  48 S9        30.09R
$$

TXZ033>036-039>041-045>048-250300
TEXAS TECH WEST TEXAS MESONET/SOUTH PLAINS

CITY           SKY/WX    TMP DP  RH WIND       PRES   REMARKS
AIKEN 3WSW       N/A     78  65  64 SE8       30.08S
ANDREWS 2NE      N/A     92  46  20 E8        30.05S
ANTON 6SSW       N/A     86  54  33 E8        30.06S
BROWNFIELD 2S    N/A     85  54  34 E6        30.06S
DENVR CTY 7WNW   N/A     86  44  22 E7        30.08R
GAIL 2ESE        N/A     92  54  28 SE9       30.01R
LAMESA 2SE       N/A     90  53  27 SE8       30.05R
LEVELLAND 4S     N/A     85  52  31 E6        30.07S
LUBBOCK 3WNW     N/A     89  55  31 E9        30.06S
MORTON 1ENE      N/A     87  49  26 SE8       30.09R
ODONNELL 1N      N/A     89  53  29 E5        30.05R
PLAINS 3N        N/A     84  53  33 SE7       30.08S
RALLS 1SE        N/A     84  61  45 E8        30.07S
REESE CENTER     N/A     88  50  26 SE8       30.07R
SEAGRAVES 1SW    N/A     90  50  25 SE5       30.06S
SEMINOLE 2NNE    N/A     89  48  23 E8        30.06R
SLATON 2NE       N/A     87  55  34 E8        30.06R
SNYDER 3E        N/A     90  57  32 E13       30.02R
SUNDOWN 8SW      N/A     85  52  31 SE7       30.08S
TAHOKA 3NNE      N/A     89  56  32 E9        30.05R
WOLFFORTH 6SSW   N/A     87  53  30 E8        30.07R
$$

TXZ031-032-036>038-042>044-250300-
TEXAS TECH WEST TEXAS MESONET/ROLLING PLAINS

CITY           SKY/WX    TMP DP  RH WIND       PRES   REMARKS
ASPERMONT 3NE    N/A     90  62  38 E5        29.99R
FLUVANNA 3WNW    N/A     90  51  26 E8        30.04R
GRAHAM 5SSW      N/A     91  53  28 E9        30.04R
GUTHRIE 10WSW    N/A     87  65  47 SE7       29.99R
HASKELL 1NW      N/A     89  62  40 E5        29.98R
JAYTON 1SSE      N/A     89  59  35 E9        30.00R
KNOX CITY 3NW    N/A     91  59  33 E9        29.97S
NORTHFIELD 1S    N/A     89  65  43 SE8       29.99R
ODELL 4ENE       N/A     89  68  51 SE8       29.97R
PADUCAH 10SW     N/A     88  64  44 E8        29.99R
POST 1NE         N/A     90  54  28 E9        30.02R
RRING SPRGS 3N   N/A     87  64  46 SE7       30.03S
SEYMOUR 3NW      N/A     89  65  44 E9        29.96S
SPUR 1W          N/A     89  56  32 E6        30.01R
WEINERT 2NNE     N/A     90  65  43 E5        29.98R
WHITE RVR 6NE    N/A     89  58  35 E8        30.03S
$$

TXZ052-054-060>062-072-078-127-140-154-169-250300-
TEXAS TECH WEST TEXAS MESONET/PERMIAN BASIN/
CONCHO VALLEY/BIG COUNTRY/EDWARDS PLATEAU

CITY           SKY/WX    TMP DP  RH WIND       PRES   REMARKS
COYANOSA 2N      N/A     94  54  26 SE9       29.99R
JUNCTION 1SSW    N/A     85  67  54 S5        30.03R
MERTZON 3NNE     N/A     89  61  39 E8        30.04R
SAN ANGELO 7NW   N/A     89  60  37 E6        30.02R
STRLNG CT 4WSW   N/A     89  62  40 SE10      30.04R
ST LAWRNCE 5SW   N/A     88  56  33 E15       30.04R
SWEETWATR 11SW   N/A     88  64  45 SE13      30.05R
WALL 1E          N/A     88  60  38 E9        30.02R
$$

TXZ055-058-074-075-080-082-250300-
TEXAS TECH WEST TEXAS MESONET/FAR WEST/SOUTHWEST MOUNTAINS/TRANS PECOS

CITY           SKY/WX    TMP DP  RH WIND       PRES   REMARKS
PRSMN GAP BBNP   N/A     92  56  29 SE13      30.02R
GUADLPE MTN NP   N/A     78  44  30 N5        30.23S
$$


USA.gov is the U.S. government's official web portal to all federal, state and local government web resources and services.